Regional Weather Roundup
Issued by NWS

Home | Current Version | Previous Version | Text Only | Print | Product List | Glossary Off
Versions: 1 2 3 4 5 6 7 8 9 10 11 12 13 14 15 16 17 18 19 20 21 22 23 24 25 26 27 28 29 30 31 32 33 34 35 36 37 38 39 40 41 42 43 44 45 46 47 48 49 50

000
ASUS43 KOAX 300310
RWRNE
OMARWRNE ALL

WEATHER ROUNDUP FOR NEBRASKA
NATIONAL WEATHER SERVICE OMAHA NE
1000 PM CDT MON JUN 29 2015

NOTES: SATELLITE DATA IS BEING USED TO AUGMENT CLOUD COVER ABOVE
       12000 FEET.
       "FAIR" INDICATES FEW OR NO CLOUDS BELOW 12,000 FEET WITH NO
       SIGNIFICANT WEATHER AND/OR OBSTRUCTIONS TO VISIBILITY.

  * THESE STATIONS DO NOT REPORT WEATHER SUCH AS RAIN...SNOW OR FOG.

NEZ001>004-019>022-054>056-300400-
NEBRASKA PANHANDLE

CITY           SKY/WX    TMP DP  RH WIND       PRES   REMARKS
SCOTTSBLUFF    CLEAR     73  56  54 E6        30.09S
ALLIANCE       CLEAR     73  61  65 E3        30.09S
CHADRON        CLEAR     72  62  71 CALM      30.04S
KIMBALL          N/A    N/A N/A N/A MISG        N/A
SIDNEY         CLEAR     68  61  78 E3        30.13S
$$

NEZ057>060-069>072-079>082-300400-
SOUTHWEST NEBRASKA

CITY           SKY/WX    TMP DP  RH WIND       PRES   REMARKS
NORTH PLATTE   CLEAR     74  63  68 SE7       30.02R
IMPERIAL       CLEAR     75  62  64 SE3       30.05R
LEXINGTON      CLEAR     76  65  67 CALM      30.00R
MCCOOK         CLEAR     83  58  42 S3        30.00S
OGALLALA       CLEAR     74  58  56 CALM      30.05S
$$

NEZ005>010-023>029-035>040-094-300400-
NORTH CENTRAL NEBRASKA

CITY           SKY/WX    TMP DP  RH WIND       PRES   REMARKS
VALENTINE      CLEAR     72  63  73 S5        30.00S
AINSWORTH      CLEAR     71  63  74 CALM      30.01R
BROKEN BOW     CLEAR     70  65  84 N5        30.00S
O`NEILL        CLEAR     74  64  71 S5        29.96S
ORD            CLEAR     70  63  78 S5        29.96S
THEDFORD       CLEAR     75  63  66 CALM      30.04R
$$

NEZ041-046>049-061>064-073>077-083>087-300400-
SOUTH CENTRAL NEBRASKA

CITY           SKY/WX    TMP DP  RH WIND       PRES   REMARKS
GRAND ISLAND   PTCLDY    74  62  66 E6        29.98R
AURORA         PTCLDY    74  64  70 CALM      29.97R
HASTINGS       PTCLDY    78  64  61 CALM      29.97R
HEBRON         CLEAR     72  64  75 CALM      29.96R
HOLDREGE       PTCLDY    73  64  75 SE5       30.00R
KEARNEY *      PTCLDY    79  63  57 S5        29.99R
YORK           PTCLDY    75  64  69 CALM      29.97R
$$

NEZ011>018-030>034-042>045-300400-
NORTHEAST NEBRASKA

CITY           SKY/WX    TMP DP  RH WIND       PRES   REMARKS
NORFOLK        PTCLDY    69  65  86 SW6       29.94R
ALBION         PTCLDY    72  60  67 CALM      29.96S
BLAIR          CLEAR     74  60  61 CALM      29.93R
COLUMBUS *     PTCLDY    70  61  73 CALM      29.94R
FREMONT        CLEAR     75  63  66 CALM      29.93R
TEKAMAH        PTCLDY    72  64  76 W8        29.91R
WAYNE          CLEAR     67  63  89 CALM      29.94R
$$

NEZ050>053-065>068-078-088>093-300400-
SOUTHEAST NEBRASKA

CITY           SKY/WX    TMP DP  RH WIND       PRES   REMARKS
LINCOLN        CLEAR     74  64  71 N3        29.94R
OMAHA EPPLEY   CLOUDY    73  64  73 E3        29.91R
BEATRICE       CLEAR     73  65  77 CALM      29.94R
FALLS CITY     CLEAR     77  63  61 CALM      29.91R
NEBRASKA CITY  CLEAR     75  57  52 CALM      29.93R
PLATTSMOUTH    CLOUDY    75  60  59 CALM      29.92R
$$

NEZ044-045-051>053-067-300400-
OMAHA AREA

CITY           SKY/WX    TMP DP  RH WIND       PRES   REMARKS
OMAHA EPPLEY   CLOUDY    73  64  73 E3        29.91R
BLAIR          CLEAR     74  60  61 CALM      29.93R
FREMONT        CLEAR     75  63  66 CALM      29.93R
MILLARD        CLEAR     74  63  69 CALM      29.91R
OFFUTT AFB     CLEAR     69  64  83 CALM      29.90R
PLATTSMOUTH    CLOUDY    75  60  59 CALM      29.92R
WAHOO          FAIR      75  66  73 CALM      29.93R
$$



USA.gov is the U.S. government's official web portal to all federal, state and local government web resources and services.